Weather History for Rexburg, ID

Change the Weather History Date:

Tuesday, February 14, 2012

  Actual Average Record
Temperature  
Mean Temperature 29 °F 22 °F  
Max Temperature 31 °F 32 °F 40 °F (2011)
Min Temperature 27 °F 12 °F -11 °F (2004)
Degree Days  
Heating Degree Days 36 43  
Month to date heating degree days 547 623  
Since 1 July heating degree days 4871 5400  
Cooling Degree Days 0 0  
Month to date cooling degree days 0 0  
Year to date cooling degree days 0 0  
Moisture  
Dew Point 25 °F    
Average Humidity 85    
Maximum Humidity 100    
Minimum Humidity 69    
Precipitation  
Precipitation T in 0.03 in 0.67 in (1986)
Month to date precipitation 0.20 0.41  
Year to date precipitation 1.33 1.15  
Snow  
Snow 0.00 in - - ()
Snow Depth 0.00 in    
Sea Level Pressure  
Sea Level Pressure 29.84 in    
Wind  
Wind Speed 8 mph (SSW)    
Max Wind Speed 17 mph    
Max Gust Speed 23 mph    
Visibility 9 miles    
Events Snow    
T = Trace of Precipitation, MM = Missing Value Source: NWS Daily Summary

Daily Weather History Graph

Daily Weather History Graph

Search for Another Location

Airport:

Trip Planner

Search our weather history database for the weather conditions in past years. The results will help you decide how hot, cold, wet, or windy it might be!

Date:

Astronomy

Feb. 14, 2012 Rise Set
Actual Time 7:28 AM MST 5:55 PM MST
Civil Twilight 6:58 AM MST 6:24 PM MST
Nautical Twilight 6:24 AM MST 6:58 PM MST
Astronomical Twilight 5:51 AM MST 7:32 PM MST
Moon 1:22 AM MST (2/14) 10:58 AM MST (2/14)
Length of Visible Light 11h 26m
Length of Day
10h 27m
Waning Gibbous, 49% of the Moon is Illuminated
Feb 14
Waning Gibbous
Feb 21
New
Feb 29
First Quarter
Mar 8
Full
Mar 14
Last Quarter

Hourly Weather History & Observations

Time (MST) Temp. Windchill Dew Point Humidity Pressure Visibility Wind Dir Wind Speed Gust Speed Precip Events Conditions
12:53 AM 28.9 °F - 26.1 °F 89% 29.83 in 10.0 mi Calm Calm - N/A   Overcast
2:53 AM 30.0 °F - 26.1 °F 85% 29.81 in 10.0 mi Calm Calm - N/A   Overcast
3:53 AM 30.0 °F 25.2 °F 25.0 °F 82% 29.80 in 10.0 mi SSW 4.6 mph - N/A   Overcast
4:33 AM 30.2 °F 25.4 °F 24.8 °F 80% 29.76 in 10.0 mi SW 4.6 mph - N/A   Overcast
5:53 AM 28.9 °F 19.8 °F 26.1 °F 89% 29.82 in 10.0 mi SSW 10.4 mph - N/A   Overcast
5:59 AM 28.4 °F 18.0 °F 26.6 °F 93% 29.75 in 10.0 mi SSW 12.7 mph 19.6 mph N/A   Overcast
6:22 AM 28.4 °F 18.5 °F 28.4 °F 100% 29.75 in 2.5 mi SSW 11.5 mph - 0.00 in Snow Light Snow
6:46 AM 28.4 °F 18.0 °F 28.4 °F 100% 29.75 in 4.0 mi SSW 12.7 mph - 0.00 in   Overcast
6:53 AM 28.9 °F 17.3 °F 28.0 °F 96% 29.81 in 5.0 mi SSW 16.1 mph 21.9 mph 0.00 in   Overcast
7:06 AM 28.4 °F 16.6 °F 26.6 °F 93% 29.75 in 10.0 mi SW 16.1 mph - N/A   Overcast
7:53 AM 28.0 °F 19.3 °F 26.1 °F 92% 29.86 in 10.0 mi SW 9.2 mph - N/A   Overcast
8:53 AM 28.0 °F 18.6 °F 26.1 °F 92% 29.86 in 9.0 mi SSW 10.4 mph - 0.00 in   Overcast
9:53 AM 28.0 °F 17.0 °F 26.1 °F 92% 29.86 in 10.0 mi SW 13.8 mph 19.6 mph N/A   Overcast
10:53 AM 28.0 °F 18.1 °F 26.1 °F 92% 29.88 in 10.0 mi SW 11.5 mph 20.7 mph N/A   Overcast
11:53 AM 28.0 °F 17.5 °F 25.0 °F 88% 29.89 in 10.0 mi SW 12.7 mph - N/A   Overcast
12:53 PM 28.0 °F 18.1 °F 25.0 °F 88% 29.87 in 10.0 mi SSW 11.5 mph - N/A   Overcast
1:21 PM 28.4 °F 17.0 °F 24.8 °F 86% 29.80 in 10.0 mi SW 15.0 mph 19.6 mph N/A   Overcast
1:53 PM 28.0 °F 17.0 °F 24.1 °F 85% 29.89 in 10.0 mi SW 13.8 mph - N/A   Overcast
2:53 PM 28.9 °F 21.1 °F 24.1 °F 82% 29.87 in 10.0 mi SW 8.1 mph - N/A   Overcast
3:11 PM 28.4 °F 19.7 °F 24.8 °F 86% 29.80 in 10.0 mi SW 9.2 mph - N/A   Overcast
3:53 PM 28.9 °F 21.1 °F 24.1 °F 82% 29.86 in 10.0 mi SSW 8.1 mph - N/A   Overcast
4:53 PM 30.0 °F 21.1 °F 25.0 °F 82% 29.86 in 10.0 mi SW 10.4 mph - N/A   Overcast
5:53 PM 30.0 °F 23.2 °F 24.1 °F 79% 29.88 in 10.0 mi SSW 6.9 mph - N/A   Overcast
6:45 PM 30.2 °F 21.9 °F 24.8 °F 80% 29.81 in 10.0 mi SSW 9.2 mph - N/A   Overcast
6:53 PM 30.0 °F 21.7 °F 24.1 °F 79% 29.88 in 10.0 mi SSW 9.2 mph - N/A   Overcast
7:53 PM 30.0 °F 21.7 °F 23.0 °F 75% 29.89 in 10.0 mi South 9.2 mph - N/A   Overcast
8:53 PM 30.0 °F 21.7 °F 21.9 °F 72% 29.89 in 10.0 mi South 9.2 mph - N/A   Overcast
9:53 PM 30.0 °F 22.4 °F 21.9 °F 72% 29.91 in 10.0 mi SSW 8.1 mph - N/A   Overcast
10:53 PM 30.0 °F 25.2 °F 21.0 °F 69% 29.89 in 10.0 mi SE 4.6 mph - N/A   Overcast
11:53 PM 30.0 °F 25.2 °F 19.9 °F 66% 29.89 in 10.0 mi South 4.6 mph - N/A   Overcast